Location: Wells
(51.2093°N, 2.6446°W)
Time: 10:40:33
(UTC+01:00)

CUTE-I - Pass Details

Date: 12 March 2026
Orbit: 804 x 818 km, 98.7° (Epoch: 20 April)

Event Time Altitude Azimuth Distance (km) Brightness Sun altitude
Rises 19:13:20 0° 219° (SW) 3,322 ? -10.7°
Reaches altitude 10° 19:16:57 10° 245° (WSW) 2,394 ? -11.3°
Maximum altitude 19:19:34 14° 275° (W) 2,145 ? -11.7°
Drops below altitude 10° 19:22:10 10° 305° (NW) 2,399 ? -12.1°
Sets 19:25:50 0° 331° (NNW) 3,334 ? -12.6°
